"TOA5","MOW","CPU:UNC_MeetingWaters","DataHourly"
"TIMESTAMP","SondeTempC","SpCond","DOSat","DOmg","pH","Turb","BattVolt_Min"
"TS","","","","","","",""
"","Smp","Smp","Smp","Smp","Smp","Smp","Min"
"2001-06-01 00:00:00",18.6499996185,0.216999992728,-0.20000000298,-0.019999999553,7.57000017166,3.0,12.6700000763
"2001-06-01 01:00:00",18.5400009155,0.216000005603,-0.20000000298,-0.00999999977648,7.57000017166,3.0,12.6499996185
"2001-06-01 02:00:00",18.4799995422,0.216000005603,-0.20000000298,-0.00999999977648,7.57999992371,3.70000004768,12.6300001144
"2001-06-01 03:00:00",18.4400005341,0.215000003576,-0.20000000298,-0.00999999977648,7.57999992371,3.20000004768,12.6099996567
"2001-06-01 04:00:00",18.4099998474,0.21400000155,-0.20000000298,-0.00999999977648,7.59000015259,3.09999990463,12.6000003815
"2001-06-01 05:00:00",18.3799991608,0.21400000155,-0.20000000298,-0.00999999977648,7.57999992371,40.7000007629,12.5699996948
"2001-06-01 06:00:00",18.3500003815,0.215000003576,-0.20000000298,-0.00999999977648,7.55999994278,3.70000004768,12.5600004196
"2001-06-01 07:00:00",18.3400001526,0.217999994755,-0.20000000298,-0.00999999977648,7.59999990463,3.59999990463,12.5600004196
"2001-06-01 08:00:00",18.3400001526,0.218999996781,-0.20000000298,-0.019999999553,7.59999990463,3.90000009537,12.5600004196
"2001-06-01 09:00:00",18.3700008392,0.219999998808,-0.20000000298,-0.00999999977648,7.61000013351,5.30000019073,12.5900001526
"2001-06-01 10:00:00",18.4400005341,0.218999996781,-0.20000000298,-0.00999999977648,7.63000011444,3.59999990463,12.720000267
"2001-06-01 11:00:00",18.6299991608,0.217999994755,-0.20000000298,-0.00999999977648,7.65000009537,4.40000009537,13.2399997711
"2001-06-01 12:00:00",18.9500007629,0.217999994755,-0.20000000298,-0.019999999553,7.67000007629,4.5,12.8500003815
"2001-06-01 13:00:00",22.1399993896,0.0390000008047,-0.300000011921,-0.019999999553,7.59999990463,338.0,12.7899999619
"2001-06-01 14:00:00",22.4300003052,0.0399999991059,-0.20000000298,-0.019999999553,7.57999992371,191.399993896,12.779999733
"2001-06-01 15:00:00",21.8099994659,0.0270000007004,-0.20000000298,-0.019999999553,7.69999980927,539.299987793,12.7100000381
"2001-06-01 16:00:00",20.7900009155,0.0299999993294,-0.20000000298,-0.019999999553,7.34000015259,622.0,12.6599998474
"2001-06-01 17:00:00",20.6800003052,0.0240000002086,-0.20000000298,-0.019999999553,7.11999988556,488.0,12.6000003815
"2001-06-01 18:00:00",20.3600006104,0.0450000017881,-0.300000011921,-0.019999999553,7.11000013351,258.799987793,12.5799999237
"2001-06-01 19:00:00",20.4200000763,0.0610000006855,-0.300000011921,-0.019999999553,7.23999977112,226.800003052,12.5799999237
"2001-06-01 20:00:00",20.5900001526,0.0719999969006,-0.300000011921,-0.019999999553,7.23999977112,228.300003052,12.5600004196
"2001-06-01 21:00:00",20.1599998474,0.0790000036359,-0.300000011921,-0.019999999553,7.23000001907,121.5,12.5600004196
"2001-06-01 22:00:00",19.7099990845,0.0920000001788,-0.300000011921,-0.019999999553,7.21999979019,103.900001526,12.5500001907
"2001-06-01 23:00:00",19.9300003052,0.0949999988079,-0.20000000298,-0.019999999553,7.28999996185,81.4000015259,12.5399999619
"2001-06-02 00:00:00",19.9799995422,0.0890000015497,-0.20000000298,-0.019999999553,7.32000017166,56.7999992371,12.5399999619
"2001-06-02 01:00:00",20.0400009155,0.0869999974966,-0.20000000298,-0.019999999553,7.23999977112,49.0,12.5399999619
"2001-06-02 02:00:00",19.8600006104,0.0900000035763,-0.20000000298,-0.019999999553,7.23999977112,56.2999992371,12.5399999619
"2001-06-02 03:00:00",19.7700004578,0.0960000008345,-0.20000000298,-0.019999999553,7.28000020981,48.7999992371,12.5399999619
"2001-06-02 04:00:00",19.6200008392,0.103000000119,-0.20000000298,-0.019999999553,7.32000017166,39.0999984741,12.529999733
"2001-06-02 05:00:00",19.3600006104,0.109999999404,-0.20000000298,-0.019999999553,7.32999992371,37.0999984741,12.5200004578
"2001-06-02 06:00:00",19.3600006104,0.115000002086,-0.20000000298,-0.019999999553,7.38000011444,32.7000007629,12.5100002289
"2001-06-02 07:00:00",19.2800006866,0.120999999344,-0.20000000298,-0.019999999553,7.40000009537,28.2999992371,12.5100002289
"2001-06-02 08:00:00",19.2399997711,0.126000002027,-0.20000000298,-0.019999999553,7.38999986649,31.7000007629,12.5200004578
"2001-06-02 09:00:00",19.1700000763,0.129999995232,-0.20000000298,-0.019999999553,7.44999980927,31.7000007629,12.75
"2001-06-02 10:00:00",19.3999996185,0.133000001311,-0.20000000298,-0.019999999553,7.46999979019,25.7000007629,13.220000267
"2001-06-02 11:00:00",19.5900001526,0.136999994516,-0.20000000298,-0.019999999553,7.51000022888,23.8999996185,12.9799995422
"2001-06-02 12:00:00",19.9799995422,0.137999996543,-0.20000000298,-0.019999999553,7.48999977112,44.5,13.1899995804
"2001-06-02 13:00:00",20.7600002289,0.136000007391,-0.20000000298,-0.019999999553,7.5,97.0999984741,13.1400003433
"2001-06-02 14:00:00",21.2399997711,0.136999994516,-0.20000000298,-0.019999999553,7.48000001907,81.5999984741,13.0900001526
"2001-06-02 15:00:00",21.3199996948,0.140000000596,-0.20000000298,-0.019999999553,7.46000003815,60.2999992371,13.0900001526
"2001-06-02 16:00:00",21.5599994659,0.143000006676,-0.20000000298,-0.019999999553,7.5,52.9000015259,12.8999996185
"2001-06-02 17:00:00",21.5100002289,0.145999997854,-0.20000000298,-0.019999999553,7.5,60.2999992371,13.0500001907
"2001-06-02 18:00:00",21.3999996185,0.146999999881,-0.20000000298,-0.019999999553,7.48000001907,48.9000015259,12.8599996567
"2001-06-02 19:00:00",21.2900009155,0.145999997854,-0.20000000298,-0.019999999553,7.46999979019,23.6000003815,12.8000001907
"2001-06-02 20:00:00",21.1599998474,0.144999995828,-0.20000000298,-0.019999999553,7.48000001907,14.8000001907,12.75
"2001-06-02 21:00:00",20.9099998474,0.144999995828,-0.20000000298,-0.019999999553,7.46000003815,13.3000001907,12.7299995422
"2001-06-02 22:00:00",20.6299991608,0.145999997854,-0.20000000298,-0.019999999553,7.46000003815,13.1000003815,12.6999998093
"2001-06-02 23:00:00",20.4500007629,0.145999997854,-0.20000000298,-0.019999999553,7.48000001907,12.3000001907,12.6800003052
"2001-06-03 00:00:00",20.1900005341,0.146999999881,-0.20000000298,-0.019999999553,7.46999979019,13.3999996185,12.6599998474
"2001-06-03 01:00:00",20.0499992371,0.148000001907,-0.20000000298,-0.019999999553,7.46999979019,11.3000001907,12.6400003433
"2001-06-03 02:00:00",19.9300003052,0.149000003934,-0.20000000298,-0.019999999553,7.48999977112,10.3999996185,12.6400003433
"2001-06-03 03:00:00",19.8199996948,0.150999993086,-0.20000000298,-0.019999999553,7.48999977112,9.80000019073,12.6300001144
"2001-06-03 04:00:00",19.6200008392,0.150999993086,-0.20000000298,-0.019999999553,7.5,9.60000038147,12.6099996567
"2001-06-03 05:00:00",19.3600006104,0.150999993086,-0.20000000298,-0.019999999553,7.48000001907,10.1999998093,12.5900001526
"2001-06-03 06:00:00",19.1200008392,0.152999997139,-0.20000000298,-0.019999999553,7.48999977112,8.89999961853,12.5900001526
"2001-06-03 07:00:00",18.9400005341,0.153999999166,-0.20000000298,-0.019999999553,7.48999977112,9.69999980927,12.5699996948
"2001-06-03 08:00:00",18.8500003815,0.157000005245,-0.20000000298,-0.019999999553,7.5,9.89999961853,12.5600004196
"2001-06-03 09:00:00",18.8199996948,0.159999996424,-0.20000000298,-0.019999999553,7.48000001907,9.5,12.5900001526
"2001-06-03 10:00:00",19.0300006866,0.162000000477,-0.20000000298,-0.019999999553,7.48999977112,9.10000038147,13.2600002289
"2001-06-03 11:00:00",19.7199993134,0.165999993682,-0.20000000298,-0.019999999553,7.51000022888,8.10000038147,13.1700000763
"2001-06-03 12:00:00",20.6499996185,0.168999999762,-0.20000000298,-0.019999999553,7.57000017166,7.19999980927,13.1199998856
"2001-06-03 13:00:00",21.2199993134,0.171000003815,-0.20000000298,-0.019999999553,7.55000019073,7.69999980927,13.0699996948
"2001-06-03 14:00:00",21.7700004578,0.172999992967,-0.300000011921,-0.019999999553,7.55999994278,8.60000038147,13.0600004196
"2001-06-03 15:00:00",22.2000007629,0.173999994993,-0.300000011921,-0.019999999553,7.53000020981,8.0,13.029999733
"2001-06-03 16:00:00",22.3600006104,0.173999994993,-0.300000011921,-0.019999999553,7.51999998093,7.40000009537,13.0100002289
"2001-06-03 17:00:00",22.1399993896,0.17499999702,-0.300000011921,-0.019999999553,7.61000013351,7.19999980927,13.0
"2001-06-03 18:00:00",21.4200000763,0.172000005841,-0.300000011921,-0.019999999553,7.63000011444,7.59999990463,12.9099998474
"2001-06-03 19:00:00",21.1200008392,0.172999992967,-0.300000011921,-0.0299999993294,7.61000013351,6.40000009537,12.8100004196
"2001-06-03 20:00:00",21.0,0.173999994993,-0.300000011921,-0.019999999553,7.57999992371,6.30000019073,12.7600002289
"2001-06-03 21:00:00",20.7800006866,0.175999999046,-0.300000011921,-0.019999999553,7.59000015259,6.40000009537,12.7299995422
"2001-06-03 22:00:00",20.4899997711,0.178000003099,-0.20000000298,-0.019999999553,7.61000013351,6.5,12.6999998093
"2001-06-03 23:00:00",20.2800006866,0.178000003099,-0.20000000298,-0.019999999553,7.61000013351,6.09999990463,12.6700000763
"2001-06-04 00:00:00",20.0499992371,0.179000005126,-0.20000000298,-0.019999999553,7.61999988556,5.80000019073,12.6599998474
"2001-06-04 01:00:00",19.7999992371,0.180000007153,-0.20000000298,-0.019999999553,7.61999988556,6.0,12.6499996185
"2001-06-04 02:00:00",19.5200004578,0.180000007153,-0.20000000298,-0.019999999553,7.63000011444,5.69999980927,12.6300001144
"2001-06-04 03:00:00",19.3199996948,0.180999994278,-0.20000000298,-0.019999999553,7.63000011444,6.0,12.6099996567
"2001-06-04 04:00:00",19.1200008392,0.182999998331,-0.20000000298,-0.019999999553,7.61000013351,10.5,12.5900001526
"2001-06-04 05:00:00",18.9699993134,0.181999996305,-0.20000000298,-0.019999999553,7.63000011444,7.59999990463,12.5900001526
"2001-06-04 06:00:00",18.7800006866,0.180999994278,-0.20000000298,-0.019999999553,7.63999986649,6.0,12.5699996948
"2001-06-04 07:00:00",18.5799999237,0.180000007153,-0.20000000298,-0.019999999553,7.65000009537,5.80000019073,12.5600004196
"2001-06-04 08:00:00",18.4899997711,0.180000007153,-0.20000000298,-0.019999999553,7.65000009537,6.19999980927,12.5799999237
"2001-06-04 09:00:00",18.4899997711,0.180000007153,-0.20000000298,-0.019999999553,7.65000009537,19.2000007629,13.0100002289
"2001-06-04 10:00:00",18.6000003815,0.182999998331,-0.20000000298,-0.019999999553,7.65999984741,6.0,13.2899999619
"2001-06-04 11:00:00",18.8799991608,0.185000002384,-0.20000000298,-0.019999999553,7.65000009537,5.80000019073,13.2100000381
"2001-06-04 12:00:00",19.25,0.186000004411,-0.20000000298,-0.019999999553,7.69999980927,6.09999990463,13.220000267
"2001-06-04 13:00:00",20.0400009155,0.185000002384,-0.20000000298,-0.019999999553,7.73999977112,5.59999990463,13.1700000763
"2001-06-04 14:00:00",20.6200008392,0.186000004411,-0.20000000298,-0.019999999553,7.65999984741,5.69999980927,13.029999733
"2001-06-04 15:00:00",21.1599998474,0.186000004411,-0.300000011921,-0.019999999553,7.67000007629,5.59999990463,13.0699996948
"2001-06-04 16:00:00",21.4300003052,0.187999993563,-0.300000011921,-0.019999999553,7.61999988556,5.59999990463,13.0200004578
"2001-06-04 17:00:00",21.2099990845,0.184000000358,-0.300000011921,-0.019999999553,7.67999982834,5.40000009537,13.0
"2001-06-04 18:00:00",21.1100006104,0.182999998331,-0.300000011921,-0.0299999993294,7.65000009537,6.59999990463,12.8900003433
"2001-06-04 19:00:00",20.9799995422,0.182999998331,-0.300000011921,-0.019999999553,7.57999992371,8.30000019073,12.8299999237
"2001-06-04 20:00:00",20.8899993896,0.182999998331,-0.300000011921,-0.019999999553,7.57000017166,11.1999998093,12.7899999619
"2001-06-04 21:00:00",20.8700008392,0.184000000358,-0.300000011921,-0.019999999553,7.53999996185,10.3999996185,12.7600002289
"2001-06-04 22:00:00",20.8199996948,0.184000000358,-0.300000011921,-0.019999999553,7.53000020981,8.80000019073,12.7399997711
"2001-06-04 23:00:00",20.7399997711,0.186000004411,-0.20000000298,-0.019999999553,7.55000019073,8.30000019073,12.7100000381
"2001-06-05 00:00:00",20.6499996185,0.185000002384,-0.20000000298,-0.019999999553,7.57000017166,9.10000038147,12.6899995804
"2001-06-05 01:00:00",20.5100002289,0.185000002384,-0.20000000298,-0.019999999553,7.57000017166,8.89999961853,12.6800003052
"2001-06-05 02:00:00",20.3799991608,0.184000000358,-0.20000000298,-0.019999999553,7.59000015259,8.89999961853,12.6599998474
"2001-06-05 03:00:00",20.2700004578,0.185000002384,-0.20000000298,-0.019999999553,7.59000015259,9.39999961853,12.6400003433
"2001-06-05 04:00:00",20.1399993896,0.184000000358,-0.20000000298,-0.019999999553,7.59999990463,8.60000038147,12.6300001144
"2001-06-05 05:00:00",20.0400009155,0.184000000358,-0.20000000298,-0.019999999553,7.61000013351,7.90000009537,12.6099996567
"2001-06-05 06:00:00",19.9400005341,0.185000002384,-0.20000000298,-0.019999999553,7.61000013351,7.5,12.6000003815
"2001-06-05 07:00:00",19.8799991608,0.187999993563,-0.20000000298,-0.019999999553,7.63000011444,7.09999990463,12.5699996948
"2001-06-05 08:00:00",19.8999996185,0.189999997616,-0.20000000298,-0.019999999553,7.63000011444,6.5,12.5799999237
"2001-06-05 09:00:00",20.0200004578,0.193000003695,-0.20000000298,-0.019999999553,7.57999992371,6.40000009537,12.6199998856
"2001-06-05 10:00:00",20.3600006104,0.196999996901,-0.20000000298,-0.019999999553,7.67000007629,5.90000009537,13.1499996185
"2001-06-05 11:00:00",20.9899997711,0.199000000954,-0.20000000298,-0.019999999553,7.55000019073,7.40000009537,13.0699996948
"2001-06-05 12:00:00",21.8299999237,0.20000000298,-0.300000011921,-0.019999999553,7.67999982834,5.5,13.0
"2001-06-05 13:00:00",22.25,0.199000000954,-0.300000011921,-0.019999999553,7.71999979019,5.5,12.9300003052
"2001-06-05 14:00:00",22.6700000763,0.20000000298,-0.300000011921,-0.0299999993294,7.67999982834,5.59999990463,12.9600000381
"2001-06-05 15:00:00",23.1299991608,0.199000000954,-0.300000011921,-0.0299999993294,7.71000003815,5.59999990463,12.9300003052
"2001-06-05 16:00:00",23.3899993896,0.202000007033,-0.300000011921,-0.0299999993294,7.55000019073,6.5,12.9200000763
"2001-06-05 17:00:00",23.3899993896,0.203999996185,-0.300000011921,-0.0299999993294,7.61000013351,7.80000019073,12.9099998474
"2001-06-05 18:00:00",23.2199993134,0.207000002265,-0.300000011921,-0.0299999993294,7.59000015259,8.69999980927,12.8299999237
"2001-06-05 19:00:00",22.8600006104,0.209000006318,-0.300000011921,-0.0299999993294,7.59999990463,8.5,12.7899999619
"2001-06-05 20:00:00",22.4899997711,0.206000000238,-0.300000011921,-0.019999999553,7.59000015259,7.40000009537,12.7399997711
"2001-06-05 21:00:00",22.3600006104,0.202999994159,-0.300000011921,-0.019999999553,7.57999992371,6.69999980927,12.7100000381
"2001-06-05 22:00:00",22.2399997711,0.20000000298,-0.300000011921,-0.019999999553,7.57000017166,6.30000019073,12.6800003052
"2001-06-05 23:00:00",22.1100006104,0.199000000954,-0.300000011921,-0.019999999553,7.55999994278,6.09999990463,12.6599998474
"2001-06-06 00:00:00",21.9799995422,0.196999996901,-0.300000011921,-0.019999999553,7.57000017166,6.19999980927,12.6300001144
"2001-06-06 01:00:00",21.8400001526,0.195999994874,-0.300000011921,-0.019999999553,7.55999994278,5.90000009537,12.6199998856
"2001-06-06 02:00:00",21.6499996185,0.193000003695,-0.300000011921,-0.019999999553,7.57999992371,5.69999980927,12.6000003815
"2001-06-06 03:00:00",21.4599990845,0.189999997616,-0.20000000298,-0.019999999553,7.57999992371,5.5,12.5799999237
"2001-06-06 04:00:00",21.2700004578,0.187999993563,-0.20000000298,-0.019999999553,7.61999988556,4.80000019073,12.5699996948
"2001-06-06 05:00:00",21.0699996948,0.187999993563,-0.20000000298,-0.019999999553,7.63000011444,4.5,12.5600004196
"2001-06-06 06:00:00",20.9099998474,0.186000004411,-0.20000000298,-0.019999999553,7.63999986649,4.5,12.5600004196
"2001-06-06 07:00:00",20.75,0.187000006437,-0.20000000298,-0.019999999553,7.65999984741,4.5,12.5500001907
"2001-06-06 08:00:00",20.7099990845,0.187999993563,-0.20000000298,-0.019999999553,7.67000007629,4.5,12.5600004196
"2001-06-06 09:00:00",20.75,0.187999993563,-0.20000000298,-0.019999999553,7.67999982834,4.80000019073,12.6000003815
"2001-06-06 10:00:00",21.0200004578,0.188999995589,-0.20000000298,-0.019999999553,7.69999980927,4.09999990463,13.1700000763
"2001-06-06 11:00:00",21.5799999237,0.187000006437,-0.300000011921,-0.019999999553,7.73000001907,4.0,13.1000003815
"2001-06-06 12:00:00",22.0499992371,0.193000003695,-0.300000011921,-0.019999999553,7.59999990463,4.40000009537,13.0500001907
"2001-06-06 13:00:00",22.7399997711,0.192000001669,-0.300000011921,-0.0299999993294,7.65999984741,5.0,13.0100002289
"2001-06-06 14:00:00",22.8999996185,0.188999995589,-0.300000011921,-0.0299999993294,7.80000019073,4.80000019073,12.9399995804
"2001-06-06 15:00:00",23.1800003052,0.187000006437,-0.300000011921,-0.0299999993294,7.80000019073,5.09999990463,12.970000267
"2001-06-06 16:00:00",23.4599990845,0.187999993563,-0.300000011921,-0.0299999993294,7.80000019073,4.90000009537,12.9499998093
"2001-06-06 17:00:00",23.4400005341,0.187999993563,-0.300000011921,-0.0299999993294,7.76999998093,5.09999990463,12.9300003052
"2001-06-06 18:00:00",23.0900001526,0.184000000358,-0.300000011921,-0.0299999993294,7.73000001907,6.59999990463,12.8100004196
"2001-06-06 19:00:00",22.7999992371,0.182999998331,-0.300000011921,-0.0299999993294,7.69000005722,7.5,12.7899999619
"2001-06-06 20:00:00",22.5900001526,0.180999994278,-0.300000011921,-0.0299999993294,7.67000007629,7.59999990463,12.7299995422
"2001-06-06 21:00:00",22.3999996185,0.182999998331,-0.300000011921,-0.0299999993294,7.67000007629,7.59999990463,12.7100000381
"2001-06-06 22:00:00",22.3299999237,0.184000000358,-0.300000011921,-0.019999999553,7.55999994278,32.7000007629,12.6800003052
"2001-06-06 23:00:00",22.1499996185,0.180000007153,-0.300000011921,-0.019999999553,7.51000022888,28.5,12.6400003433
"2001-06-07 00:00:00",22.0300006866,0.177000001073,-0.300000011921,-0.019999999553,7.42999982834,23.7999992371,12.6300001144
"2001-06-07 01:00:00",21.8700008392,0.17499999702,-0.300000011921,-0.019999999553,7.42999982834,18.5,12.6099996567
"2001-06-07 02:00:00",21.5799999237,0.180000007153,-0.300000011921,-0.019999999553,7.42000007629,14.6000003815,12.6000003815
"2001-06-07 03:00:00",21.4099998474,0.178000003099,-0.300000011921,-0.019999999553,7.40999984741,13.6000003815,12.5699996948
"2001-06-07 04:00:00",21.2900009155,0.171000003815,-0.300000011921,-0.019999999553,7.40000009537,14.6999998093,12.5600004196
"2001-06-07 05:00:00",21.2099990845,0.166999995708,-0.300000011921,-0.019999999553,7.38999986649,12.3000001907,12.5500001907
"2001-06-07 06:00:00",21.1200008392,0.163000002503,-0.300000011921,-0.019999999553,7.38999986649,10.6999998093,12.5500001907
"2001-06-07 07:00:00",21.0499992371,0.165000006557,-0.300000011921,-0.019999999553,7.40000009537,9.30000019073,12.5399999619
"2001-06-07 08:00:00",21.0300006866,0.166999995708,-0.300000011921,-0.019999999553,7.40999984741,8.10000038147,12.5500001907
"2001-06-07 09:00:00",21.0900001526,0.173999994993,-0.20000000298,-0.019999999553,7.46000003815,7.69999980927,12.8299999237
"2001-06-07 10:00:00",21.3600006104,0.181999996305,-0.20000000298,-0.019999999553,7.48000001907,6.0,13.1700000763
"2001-06-07 11:00:00",21.6499996185,0.185000002384,-0.300000011921,-0.019999999553,7.55000019073,5.30000019073,13.1400003433
"2001-06-07 12:00:00",21.9500007629,0.187999993563,-0.300000011921,-0.019999999553,7.59999990463,4.69999980927,13.0900001526
"2001-06-07 13:00:00",22.3500003815,0.188999995589,-0.300000011921,-0.019999999553,7.59000015259,4.90000009537,13.0600004196
"2001-06-07 14:00:00",22.8700008392,0.192000001669,-0.300000011921,-0.019999999553,7.61000013351,4.40000009537,13.0399999619
"2001-06-07 15:00:00",22.7299995422,0.195999994874,-0.300000011921,-0.0299999993294,7.71999979019,4.40000009537,13.0399999619
"2001-06-07 16:00:00",22.6800003052,0.194000005722,-0.300000011921,-0.0299999993294,7.73000001907,4.40000009537,12.9499998093
"2001-06-07 17:00:00",22.6000003815,0.194999992847,-0.300000011921,-0.0299999993294,7.71999979019,5.0,12.9499998093
"2001-06-07 18:00:00",22.4699993134,0.20000000298,-0.300000011921,-0.0299999993294,7.69999980927,5.09999990463,12.8299999237
"2001-06-07 19:00:00",22.3400001526,0.199000000954,-0.300000011921,-0.0299999993294,7.67000007629,5.59999990463,12.7700004578
"2001-06-07 20:00:00",22.1800003052,0.20000000298,-0.300000011921,-0.0299999993294,7.65999984741,6.5,12.7399997711
"2001-06-07 21:00:00",22.0100002289,0.202000007033,-0.300000011921,-0.019999999553,7.63999986649,7.30000019073,12.720000267
"2001-06-07 22:00:00",21.8899993896,0.202000007033,-0.300000011921,-0.019999999553,7.63000011444,7.40000009537,12.6999998093
"2001-06-07 23:00:00",21.7800006866,0.202000007033,-0.300000011921,-0.019999999553,7.63000011444,7.30000019073,12.6800003052
"2001-06-08 00:00:00",21.6499996185,0.204999998212,-0.300000011921,-0.019999999553,7.63999986649,6.09999990463,12.6700000763
"2001-06-08 01:00:00",21.5599994659,0.202999994159,-0.300000011921,-0.019999999553,7.63999986649,5.5,12.6599998474
"2001-06-08 02:00:00",21.4599990845,0.202000007033,-0.300000011921,-0.019999999553,7.65000009537,4.69999980927,12.6400003433
"2001-06-08 03:00:00",21.3500003815,0.201000005007,-0.300000011921,-0.019999999553,7.63999986649,4.40000009537,12.6300001144
"2001-06-08 04:00:00",21.2399997711,0.203999996185,-0.300000011921,-0.019999999553,7.65000009537,4.30000019073,12.6199998856
"2001-06-08 05:00:00",21.1299991608,0.202000007033,-0.20000000298,-0.019999999553,7.65999984741,4.09999990463,12.6000003815
"2001-06-08 06:00:00",21.0300006866,0.199000000954,-0.20000000298,-0.019999999553,7.65999984741,4.19999980927,12.5799999237
"2001-06-08 07:00:00",20.9300003052,0.201000005007,-0.20000000298,-0.019999999553,7.67999982834,3.90000009537,12.5699996948
"2001-06-08 08:00:00",20.9099998474,0.201000005007,-0.20000000298,-0.019999999553,7.69999980927,3.79999995232,12.6300001144
"2001-06-08 09:00:00",20.9699993134,0.202999994159,-0.20000000298,-0.019999999553,7.73000001907,3.79999995232,12.8100004196
"2001-06-08 10:00:00",21.1700000763,0.201000005007,-0.20000000298,-0.019999999553,7.75,4.5,13.1700000763
"2001-06-08 11:00:00",21.3600006104,0.202000007033,-0.300000011921,-0.019999999553,7.71999979019,4.0,13.0399999619
"2001-06-08 12:00:00",21.4699993134,0.204999998212,-0.300000011921,-0.019999999553,7.80999994278,3.90000009537,13.1300001144
"2001-06-08 13:00:00",21.7999992371,0.206000000238,-0.300000011921,-0.019999999553,7.76999998093,4.80000019073,13.1099996567
"2001-06-08 14:00:00",21.8099994659,0.204999998212,-0.300000011921,-0.019999999553,7.78000020981,4.80000019073,12.8500003815
"2001-06-08 15:00:00",21.5799999237,0.202999994159,-0.300000011921,-0.019999999553,7.76999998093,4.90000009537,12.9300003052
"2001-06-08 16:00:00",21.7900009155,0.203999996185,-0.300000011921,-0.019999999553,7.78999996185,4.59999990463,12.9799995422
"2001-06-08 17:00:00",21.8099994659,0.21099999547,-0.300000011921,-0.019999999553,7.76999998093,4.40000009537,12.8100004196
"2001-06-08 18:00:00",21.8299999237,0.223000004888,-0.300000011921,-0.019999999553,7.73999977112,4.19999980927,12.8699998856
"2001-06-08 19:00:00",21.7700004578,0.237000003457,-0.300000011921,-0.019999999553,7.73000001907,4.59999990463,12.8299999237
"2001-06-08 20:00:00",21.6700000763,0.256999999285,-0.300000011921,-0.019999999553,7.69999980927,3.59999990463,12.7399997711
"2001-06-08 21:00:00",21.4799995422,0.266000002623,-0.300000011921,-0.019999999553,7.69000005722,4.0,12.720000267
"2001-06-08 22:00:00",21.25,0.273000001907,-0.20000000298,-0.019999999553,7.69000005722,3.70000004768,12.6999998093
"2001-06-08 23:00:00",21.0200004578,0.284000009298,-0.20000000298,-0.019999999553,7.67999982834,3.70000004768,12.6700000763
"2001-06-09 00:00:00",20.8199996948,0.282000005245,-0.20000000298,-0.019999999553,7.69000005722,3.40000009537,12.6499996185